Wind_Speed
20 20 21 20 19 19 19 19 18 18 18 18 19 19 19 19 19 19 19 19 20 20 20 20 20 20 20 20 20 20 20 20 20 20 21 20 19 19 19 19 19 19 19
20 21 22 21 20 20 21 20 20 20 20 19 20 20 20 20 20 20 20 21 20 20 20 21 21 21 21 21 21 20 21 22 21 21 21 21 21 21 20 20 20 20 21
21 22 20 20 20 21 21 21 21 21 21 21 21 21 21 21 21 21 21 21 21 21 21 21 22 22 22 22 23 22 22 23 23 22 23 23 22 23 22 22 22 21 22
21 21 21 21 21 22 22 22 22 23 22 22 22 22 22 22 22 22 23 23 22 22 23 24 24 24 24 24 24 23 23 23 23 23 24 25 24 24 24 23 23 23 23
23 22 22 23 23 23 24 24 24 24 24 24 24 24 24 24 24 24 24 24 24 23 24 24 25 26 26 25 24 24 25 25 25 24 24 25 25 25 25 25 25 25 25
24 23 24 24 24 25 25 26 26 26 26 25 25 25 25 25 25 25 25 25 24 25 25 25 26 26 26 26 26 26 27 27 27 26 26 26 26 26 26 26 26 25 25
25 25 25 25 25 26 27 27 27 27 27 26 26 26 26 26 26 26 26 26 25 25 25 25 25 26 26 27 27 27 27 28 29 28 27 27 26 27 27 27 27 27 27
26 26 26 26 27 27 28 28 28 28 28 28 27 27 27 27 27 27 27 27 27 26 26 26 25 26 27 28 29 28 27 27 29 30 29 28 27 27 28 29 29 29 29
27 27 27 28 28 29 29 29 30 29 29 28 28 27 27 27 27 27 28 27 27 27 27 27 27 28 28 29 30 30 30 30 30 30 30 29 28 28 29 30 30 30 30
28 28 28 28 28 29 29 30 30 30 30 29 29 28 28 28 27 28 28 29 29 29 29 30 30 29 29 30 30 31 31 31 31 31 32 31 31 30 29 30 31 31 30
29 28 29 29 29 29 29 29 30 30 30 30 30 30 30 30 29 29 30 30 31 31 32 32 32 31 31 32 31 32 32 32 32 31 32 32 32 31 31 31 31 32 32
29 29 29 29 29 29 29 29 30 30 30 30 30 30 30 30 30 30 31 31 32 33 33 33 33 34 34 34 33 33 33 33 32 31 31 32 32 32 32 32 32 32 33
29 29 29 29 30 29 29 29 30 31 31 31 31 30 30 30 31 31 31 31 32 33 33 34 34 34 34 34 34 34 34 34 34 34 33 33 34 34 33 33 33 33 33
29 29 29 29 29 29 29 29 30 31 31 32 32 31 30 31 31 32 31 31 31 33 34 35 35 35 35 35 34 34 34 34 35 35 35 34 34 35 34 34 34 34 34
29 29 29 28 29 29 29 29 30 30 31 32 33 33 32 32 32 33 32 32 32 33 34 33 34 35 36 36 35 35 35 35 35 35 35 35 35 36 36 35 35 36 35
30 29 29 29 29 29 30 30 30 31 32 32 33 33 34 34 33 33 34 34 34 34 34 34 34 34 35 35 35 36 36 36 36 36 36 36 36 36 37 37 36 36 35
31 31 30 30 30 31 31 31 32 33 33 33 33 34 34 34 34 34 34 34 34 34 33 33 34 33 33 34 34 35 35 36 35 35 36 36 36 36 36 36 36 36 36
32 32 32 32 32 32 32 33 34 34 34 34 34 35 34 34 35 34 34 34 33 32 33 33 33 33 33 33 34 34 35 35 36 36 37 37 37 37 37 38 37 37 36
32 33 33 33 33 33 34 34 34 34 34 34 34 34 34 34 34 34 34 34 33 33 32 32 33 32 32 33 33 34 34 35 35 35 36 36 37 37 37 38 38 38 37
33 33 33 33 34 34 34 34 34 34 34 34 33 33 33 33 33 33 33 33 33 32 32 33 33 32 32 32 33 33 34 34 35 35 36 36 37 38 38 37 38 39 38
34 34 34 34 34 34 34 34 34 33 33 33 32 32 31 31 31 31 31 31 32 32 32 33 33 32 32 32 33 33 34 34 35 35 36 36 37 38 38 38 38 39 39
35 34 34 34 34 34 33 33 33 33 32 32 31 31 31 30 30 30 30 31 31 31 32 32 32 32 32 33 33 33 34 34 35 36 36 37 38 38 38 38 39 39 39
34 34 34 34 34 34 33 33 32 32 32 31 30 30 31 31 30 30 31 31 32 32 32 32 32 32 32 33 34 34 35 35 36 36 37 37 38 38 38 38 38 38 38
35 34 34 33 33 33 33 33 32 32 31 30 30 30 31 31 31 31 31 31 31 32 32 32 32 32 33 33 34 34 35 35 35 35 35 36 37 37 37 37 38 38 38
34 34 33 33 33 33 32 32 31 31 31 30 30 30 30 30 29 29 30 30 30 31 31 31 31 32 32 32 33 33 34 34 34 34 34 35 35 35 36 36 37 37 37
33 32 32 31 31 31 31 31 31 31 31 31 31 30 29 29 29 29 29 29 30 30 30 30 31 31 32 32 32 32 33 33 34 34 34 34 35 35 35 36 37 37 37
Wind_Direction
285 284 285 287 288 288 288 286 284 284 286 286 284 283 283 284 287 288 286 283 281 279 276 271 266 266 266 266 266 264 262 262 265 264 265 267 268 269 269 268 269 268 267
285 286 285 285 286 287 287 287 285 284 284 284 283 281 281 283 286 286 284 282 280 279 276 272 267 265 265 268 266 264 263 260 262 263 265 266 266 268 268 268 269 269 268
284 286 287 285 286 287 287 286 284 283 284 283 283 282 280 281 284 286 283 282 279 278 275 272 269 267 266 267 268 266 264 263 263 263 264 266 266 267 268 270 270 271 270
283 285 286 286 286 287 287 285 284 283 283 282 283 282 280 279 280 283 282 282 280 277 274 272 269 267 266 265 267 267 265 263 263 264 264 265 266 267 268 269 269 270 270
285 287 286 286 286 285 285 284 284 284 283 282 281 281 280 279 279 280 281 280 278 277 275 272 270 269 266 264 266 266 266 264 264 264 265 266 265 266 267 268 268 268 268
286 287 287 287 287 286 284 284 283 284 284 283 281 279 278 279 279 278 279 277 276 276 275 274 271 270 268 265 265 266 266 266 266 265 265 266 266 266 266 267 268 267 268
286 285 287 288 288 288 286 285 285 285 283 283 282 279 277 277 278 276 276 275 274 274 273 272 271 270 268 268 267 267 266 267 268 267 266 266 267 266 267 268 267 268 268
287 286 287 287 288 288 288 287 287 287 285 284 282 280 279 278 276 274 275 274 273 273 273 273 272 271 270 269 268 268 267 268 269 269 268 267 267 267 267 267 267 267 268
288 288 288 289 289 288 288 287 287 286 286 284 283 281 281 279 276 275 275 276 273 272 272 272 272 272 271 270 269 268 268 268 268 269 271 269 270 269 268 268 267 267 267
290 290 290 291 290 289 287 286 285 285 284 283 281 281 280 279 277 275 274 275 275 273 272 271 271 272 272 271 271 271 270 269 268 269 269 270 271 271 271 270 269 268 269
290 290 290 291 291 289 287 286 285 283 282 282 281 280 280 279 278 276 275 275 275 273 272 271 270 271 272 273 272 272 271 270 270 271 270 270 271 270 271 271 270 270 271
288 289 290 290 291 289 287 286 285 283 282 282 282 281 280 279 278 277 277 277 276 275 273 271 270 271 271 272 272 272 271 270 270 270 269 269 270 270 269 270 270 271 271
289 289 290 290 291 289 287 286 284 283 282 282 282 281 280 279 279 279 278 278 277 275 274 272 271 271 271 271 271 272 271 270 269 269 270 269 269 270 270 270 271 272 271
290 291 291 291 292 291 288 285 285 285 283 281 281 281 281 280 280 278 278 278 278 278 276 274 272 270 271 271 271 271 271 270 269 269 269 269 269 270 271 270 271 272 271
291 291 291 291 292 291 290 289 288 286 285 283 281 281 281 281 281 279 278 279 278 278 278 275 274 272 271 271 270 270 269 269 269 269 268 268 268 268 269 271 272 272 272
292 291 291 291 292 292 292 291 289 288 286 285 285 284 283 282 281 280 279 279 279 278 277 276 276 275 273 270 269 269 269 269 269 269 268 269 269 269 268 270 270 270 270
292 292 291 291 291 292 291 290 289 289 288 286 285 285 284 282 281 280 279 279 279 277 276 277 278 276 274 273 270 268 268 268 269 270 268 268 269 269 269 269 268 269 269
293 291 291 291 292 292 291 290 290 290 290 288 286 284 283 282 281 281 281 280 279 279 278 278 278 276 275 273 270 269 268 269 269 269 268 268 269 270 269 269 269 269 269
294 292 290 291 292 292 292 291 290 290 290 289 288 285 284 283 282 281 281 280 279 279 278 278 277 275 274 274 272 270 269 269 270 270 270 268 268 268 269 269 269 269 269
294 293 292 291 291 292 293 293 291 290 289 289 288 286 285 284 284 282 280 279 278 277 278 278 278 277 276 275 273 271 270 270 271 271 272 270 269 269 269 269 269 269 269
295 295 294 292 292 292 292 292 292 292 291 289 288 287 288 287 286 284 281 280 279 279 278 279 278 278 277 275 274 272 271 271 272 273 273 271 270 271 270 270 269 269 269
295 295 295 294 293 292 292 292 293 293 293 291 289 288 288 287 286 284 282 281 280 281 280 279 278 278 278 276 275 274 273 273 274 274 273 273 272 271 272 271 270 269 269
296 295 295 295 295 294 293 293 294 294 293 292 290 288 287 288 287 285 284 283 281 281 282 281 279 278 277 277 277 276 276 275 275 276 275 274 273 272 272 273 272 270 269
297 295 294 294 293 293 293 292 293 293 293 292 290 289 289 288 287 287 286 285 284 282 282 281 279 279 279 279 278 277 276 276 276 276 276 275 274 273 273 272 272 270 269
297 296 295 295 294 293 292 292 292 292 291 291 291 290 289 289 288 288 288 287 287 285 284 282 282 281 281 280 278 277 276 276 276 277 277 277 275 273 272 272 271 270 269
297 296 296 295 295 294 294 294 293 292 292 291 290 289 289 289 289 289 288 288 288 288 287 285 284 283 282 281 280 279 277 277 277 277 278 278 276 274 272 271 271 270 269
Height
5799 5798 5796 5795 5793 5791 5790 5788 5787 5786 5784 5783 5782 5780 5779 5778 5776 5775 5774 5772 5771 5770 5769 5769 5769 5770 5770 5770 5771 5771 5772 5773 5773 5774 5775 5775 5776 5776 5776 5776 5777 5777 5777
5794 5792 5791 5789 5788 5786 5784 5783 5781 5780 5779 5777 5776 5775 5773 5772 5771 5769 5768 5766 5765 5764 5764 5763 5763 5764 5764 5764 5765 5765 5766 5767 5767 5768 5769 5769 5770 5770 5770 5771 5771 5771 5771
5788 5786 5785 5784 5782 5781 5779 5777 5776 5774 5773 5771 5770 5768 5767 5766 5765 5763 5761 5760 5759 5758 5758 5758 5758 5758 5758 5758 5758 5759 5760 5760 5761 5762 5762 5763 5763 5764 5764 5764 5764 5765 5765
5782 5781 5779 5778 5776 5775 5773 5771 5769 5768 5766 5765 5763 5762 5760 5759 5758 5757 5755 5754 5753 5752 5751 5751 5751 5751 5751 5752 5752 5752 5753 5754 5754 5755 5756 5756 5756 5757 5757 5757 5758 5758 5758
5776 5774 5773 5772 5770 5768 5766 5764 5762 5761 5760 5758 5756 5755 5754 5752 5751 5750 5748 5747 5746 5745 5745 5744 5744 5744 5744 5744 5745 5745 5746 5746 5747 5748 5748 5749 5749 5749 5750 5750 5751 5751 5751
5769 5768 5766 5764 5762 5761 5759 5757 5755 5753 5752 5750 5748 5747 5746 5745 5743 5742 5741 5740 5739 5738 5738 5737 5737 5737 5737 5737 5737 5738 5739 5739 5739 5740 5741 5741 5741 5742 5742 5743 5743 5743 5744
5762 5760 5758 5757 5754 5753 5751 5749 5747 5745 5743 5742 5740 5739 5737 5736 5735 5734 5733 5732 5732 5731 5731 5730 5730 5729 5729 5730 5730 5730 5731 5731 5732 5732 5733 5733 5733 5734 5735 5735 5735 5735 5736
5754 5752 5751 5749 5746 5744 5742 5740 5739 5737 5735 5733 5731 5730 5728 5727 5726 5725 5724 5724 5724 5723 5723 5722 5722 5722 5722 5722 5722 5722 5723 5723 5724 5724 5725 5725 5725 5725 5726 5726 5726 5727 5727
5746 5744 5742 5740 5738 5736 5734 5732 5730 5728 5726 5724 5723 5721 5720 5718 5717 5717 5716 5716 5716 5715 5715 5714 5714 5714 5714 5713 5714 5714 5715 5715 5715 5716 5716 5716 5717 5717 5717 5717 5717 5717 5718
5738 5736 5733 5731 5729 5727 5725 5723 5721 5719 5717 5716 5714 5713 5711 5710 5709 5709 5708 5707 5707 5706 5706 5706 5706 5706 5705 5705 5705 5706 5706 5706 5707 5707 5707 5707 5708 5708 5708 5708 5708 5708 5708
5729 5727 5724 5722 5720 5718 5716 5714 5712 5710 5709 5707 5706 5704 5703 5702 5700 5699 5699 5698 5697 5697 5697 5697 5697 5697 5696 5696 5696 5696 5697 5697 5697 5697 5698 5698 5698 5698 5698 5698 5699 5699 5699
5720 5718 5715 5713 5711 5709 5707 5705 5703 5701 5700 5698 5696 5695 5693 5692 5691 5690 5689 5688 5687 5687 5687 5687 5687 5687 5687 5687 5687 5687 5687 5687 5687 5688 5688 5689 5689 5689 5689 5689 5689 5689 5689
5711 5709 5707 5704 5702 5700 5698 5696 5694 5692 5690 5689 5687 5686 5684 5683 5682 5680 5679 5678 5677 5677 5676 5676 5676 5676 5676 5676 5677 5676 5676 5677 5677 5678 5678 5679 5679 5679 5679 5679 5679 5678 5678
5702 5700 5698 5695 5693 5691 5688 5686 5684 5682 5681 5679 5678 5676 5675 5673 5672 5671 5670 5669 5667 5666 5666 5665 5665 5665 5666 5666 5666 5666 5666 5666 5666 5667 5667 5667 5668 5668 5669 5669 5668 5668 5668
5694 5691 5689 5687 5684 5681 5679 5677 5675 5673 5671 5669 5668 5666 5665 5664 5662 5661 5659 5659 5658 5657 5655 5655 5654 5654 5655 5655 5655 5655 5655 5656 5656 5656 5656 5656 5657 5657 5658 5657 5657 5658 5658
5685 5683 5680 5678 5675 5673 5670 5667 5665 5663 5661 5659 5657 5656 5654 5653 5651 5650 5649 5648 5647 5646 5645 5645 5644 5644 5643 5644 5644 5644 5644 5644 5644 5645 5645 5645 5646 5646 5646 5646 5646 5646 5647
5676 5674 5671 5669 5667 5664 5661 5659 5656 5654 5651 5649 5647 5645 5643 5642 5640 5639 5638 5637 5636 5635 5635 5634 5633 5633 5632 5632 5632 5633 5633 5633 5633 5633 5634 5634 5634 5634 5635 5635 5635 5635 5635
5667 5665 5662 5660 5657 5655 5652 5649 5647 5644 5642 5639 5636 5634 5632 5631 5629 5628 5627 5626 5625 5624 5624 5623 5623 5622 5621 5621 5621 5621 5622 5622 5622 5622 5622 5622 5623 5623 5623 5623 5623 5623 5624
5658 5656 5653 5650 5648 5645 5642 5639 5637 5634 5631 5629 5626 5624 5622 5620 5618 5617 5616 5615 5614 5614 5613 5612 5612 5611 5610 5610 5610 5610 5610 5610 5611 5611 5611 5611 5611 5611 5611 5611 5611 5611 5612
5649 5646 5643 5641 5638 5635 5632 5629 5626 5624 5621 5618 5616 5614 5611 5609 5608 5606 5605 5604 5603 5603 5602 5602 5601 5600 5600 5599 5599 5599 5599 5599 5599 5599 5599 5599 5599 5599 5599 5599 5599 5599 5599
5639 5636 5633 5631 5628 5625 5622 5619 5616 5613 5611 5608 5606 5604 5601 5599 5598 5596 5594 5593 5593 5592 5592 5591 5590 5589 5589 5588 5588 5588 5588 5587 5587 5587 5587 5587 5587 5587 5586 5586 5587 5587 5587
5629 5626 5624 5621 5618 5615 5612 5610 5607 5604 5601 5598 5596 5594 5592 5590 5588 5587 5585 5584 5583 5582 5581 5580 5580 5579 5578 5578 5577 5576 5576 5576 5576 5575 5575 5575 5575 5574 5574 5574 5574 5574 5574
5619 5616 5613 5611 5608 5605 5602 5600 5597 5594 5592 5589 5587 5585 5583 5581 5579 5577 5576 5575 5573 5572 5571 5570 5569 5568 5568 5567 5566 5565 5565 5564 5564 5563 5563 5562 5562 5562 5562 5561 5561 5561 5561
5609 5606 5603 5600 5598 5595 5593 5590 5587 5585 5583 5580 5578 5576 5574 5572 5570 5568 5566 5565 5563 5562 5561 5559 5558 5558 5557 5556 5555 5554 5553 5553 5552 5551 5551 5550 5550 5549 5549 5549 5549 5548 5549
5599 5596 5593 5590 5587 5585 5582 5580 5578 5575 5573 5571 5569 5567 5564 5562 5560 5558 5557 5555 5554 5552 5551 5549 5548 5547 5546 5544 5543 5542 5542 5541 5541 5540 5539 5538 5538 5537 5537 5536 5536 5536 5536
5588 5585 5583 5580 5577 5575 5573 5570 5568 5566 5563 5561 5559 5557 5555 5553 5551 5549 5548 5546 5544 5543 5541 5539 5538 5536 5535 5534 5532 5531 5531 5530 5529 5528 5527 5526 5525 5525 5524 5524 5523 5523 5523